Miscellaneous Local Product
Issued by NWS Hastings, NE

Home | Current Version | Previous Version | Text Only | Print | Product List | Glossary On
Versions: 1 2 3 4 5 6 7 8 9 10 11 12 13 14 15 16 17 18 19 20 21 22 23 24 25 26 27 28 29 30 31 32 33 34 35 36 37 38 39 40 41 42 43 44 45 46 47 48 49 50
913
AXUS43 KGID 300102
MISGRI

GID CWA HOURLY WEATHER ROUNDUP
NATIONAL WEATHER SERVICE HASTINGS NE
800 PM CDT MON MAY 29 2017

NOTE: "FAIR" INDICATES FEW OR NO CLOUDS BELOW 12,000 FEET WITH NO
SIGNIFICANT WEATHER AND/OR OBSTRUCTIONS TO VISIBILITY.

...SOUTH CENTRAL NEBRASKA...

CITY           SKY/WX    TMP DP  RH WIND       PRES   REMARKS
GRAND ISLAND   CLEAR     69  38  32 N13       30.05S
HASTINGS       CLEAR     71  36  27 N12       30.05F
KEARNEY        CLEAR     72  36  26 N10       30.05F
ORD            CLEAR     67  34  29 NW13      30.03F
YORK           CLEAR     70  34  26 NW12      30.04S
AURORA         CLEAR     71  34  26 NW13      30.04F
LEXINGTON      CLEAR     72  31  22 N12       30.06S
HOLDREGE       CLEAR     71  33  24 N10       30.05S
HEBRON         CLEAR     74  36  25 N6        30.03R

...NEBRASKA PANHANDLE...

CITY           SKY/WX    TMP DP  RH WIND       PRES   REMARKS
CHADRON        SUNNY     65  40  39 E8        30.09S
ALLIANCE       SUNNY     66  30  26 N13G24    30.10S
SCOTTSBLUFF    SUNNY     70  31  23 N14       30.12S
SIDNEY         SUNNY     67  36  31 N10       30.14S

...WESTERN AND NORTH CENTRAL NEBRASKA...

CITY           SKY/WX    TMP DP  RH WIND       PRES   REMARKS
VALENTINE      SUNNY     68  31  25 N14       30.06S
AINSWORTH      SUNNY     65  36  33 NW13      30.06S
ONEILL         PTCLDY    65  34  31 NW8       30.04S
BROKEN BOW     CLEAR     70  34  26 N10       30.05F
IMPERIAL       MOSUNNY   71  34  25 NW9       30.08S
NORTH PLATTE   SUNNY     70  38  31 NE7       30.06S
MCCOOK         MOSUNNY   75  39  27 N12       30.05S

...EASTERN NEBRASKA...

CITY           SKY/WX    TMP DP  RH WIND       PRES   REMARKS
NORFOLK        PTCLDY    66  40  38 N10       30.02S
SO SIOUX CITY  CLEAR     65  43  44 NW20G25   29.99S
TEKAMAH        CLEAR     69  38  32 NW15      30.00R
ALBION         CLEAR     66  37  34 NW10      30.04S
OMAHA EPPLEY   PTCLDY    70  41  34 NW16      29.99R
OFFUTT AFB     CLEAR     69  37  30 NW12      29.99R
MILLARD        PTCLDY    72  41  32 NW10G16   30.00S
LINCOLN        CLEAR     73  35  25 NW12      30.02S
NEBRASKA CITY  CLEAR     72  26  18 NW13      30.00S
BEATRICE       CLEAR     71  39  31 N14       30.02R
FALLS CITY     NOT AVBL

...NORTHERN KANSAS...

CITY           SKY/WX    TMP DP  RH WIND       PRES   REMARKS
GOODLAND       CLOUDY    69  47  45 CALM      30.11S
HILL CITY      CLEAR     77  42  28 CALM      30.06S
NORTON         CLEAR     68  43  40 N6        30.04S
PHILLIPSBURG   CLEAR     73  45  35 N7        30.04S
SMITH CENTER   CLEAR     72  43  35 N6        30.04S
HAYS           CLEAR     73  50  44 NE5       30.05S
RUSSELL        CLEAR     74  46  36 N5        30.03S
CONCORDIA      CLEAR     72  43  35 N5        30.01S
SALINA         CLEAR     77  52  41 N6        30.01S
TOPEKA         CLEAR     77  49  37 NW5       29.98S



USA.gov is the U.S. government's official web portal to all federal, state and local government web resources and services.